Time,TemperatureF,DewpointF,PressureIn,WindDirection,WindDirectionDegrees,WindSpeedMPH,WindSpeedGustMPH,Humidity,HourlyPrecipIn,Conditions,Clouds,dailyrainin,SoftwareType,DateUTC
2013-04-10 00:02:00,32.3,31.3,29.92,NW,310,14.0,14.0,96,0.00,,,0.00,Wunderground v.1.15,2013-04-10 05:02:00,
2013-04-10 00:12:00,32.1,31.1,29.89,NNW,335,14.0,14.0,96,0.00,,,0.00,Wunderground v.1.15,2013-04-10 05:12:00,
2013-04-10 00:22:00,31.9,30.9,29.92,North,8,15.0,17.0,96,0.00,,,0.00,Wunderground v.1.15,2013-04-10 05:22:00,
2013-04-10 00:32:00,31.9,30.9,29.96,NE,44,12.0,12.0,96,0.00,,,0.00,Wunderground v.1.15,2013-04-10 05:32:00,
2013-04-10 00:42:00,31.8,30.8,29.98,North,7,10.0,17.0,96,0.00,,,0.00,Wunderground v.1.15,2013-04-10 05:42:00,
2013-04-10 00:52:00,31.7,30.7,29.96,NNE,33,12.0,12.0,96,0.00,,,0.00,Wunderground v.1.15,2013-04-10 05:52:00,
2013-04-10 01:02:00,31.8,30.8,29.94,NW,315,11.0,11.0,96,0.00,,,0.00,Wunderground v.1.15,2013-04-10 06:02:00,
2013-04-10 01:12:00,32.0,31.0,29.90,NNW,329,16.0,22.0,96,0.00,,,0.00,Wunderground v.1.15,2013-04-10 06:12:00,
2013-04-10 01:22:00,32.0,31.0,29.87,NW,304,20.0,24.0,96,0.00,,,0.00,Wunderground v.1.15,2013-04-10 06:22:00,
2013-04-10 01:32:00,32.0,31.0,29.95,West,267,21.0,21.0,96,0.00,,,0.00,Wunderground v.1.15,2013-04-10 06:32:00,
2013-04-10 01:42:00,32.2,31.2,30.02,WNW,286,18.0,21.0,96,0.00,,,0.00,Wunderground v.1.15,2013-04-10 06:42:00,
2013-04-10 01:52:00,31.6,30.3,29.97,WNW,297,20.0,26.0,95,0.00,,,0.00,Wunderground v.1.15,2013-04-10 06:52:00,
2013-04-10 02:02:00,31.1,29.8,29.95,WNW,295,15.0,15.0,95,0.00,,,0.00,Wunderground v.1.15,2013-04-10 07:02:00,
2013-04-10 02:12:00,31.0,29.7,29.88,NNE,14,13.0,13.0,95,0.00,,,0.00,Wunderground v.1.15,2013-04-10 07:12:00,
2013-04-10 02:22:00,31.0,29.7,29.96,NW,316,12.0,16.0,95,0.00,,,0.00,Wunderground v.1.15,2013-04-10 07:22:00,
2013-04-10 02:32:00,30.6,29.3,29.91,North,356,12.0,13.0,95,0.00,,,0.00,Wunderground v.1.15,2013-04-10 07:32:00,
2013-04-10 02:42:00,30.4,29.1,29.92,NNE,18,9.0,9.0,95,0.00,,,0.00,Wunderground v.1.15,2013-04-10 07:42:00,
2013-04-10 02:52:00,30.5,29.2,29.96,NW,316,7.0,7.0,95,0.00,,,0.00,Wunderground v.1.15,2013-04-10 07:52:00,
2013-04-10 03:02:00,30.3,29.0,29.96,NW,325,7.0,7.0,95,0.00,,,0.00,Wunderground v.1.15,2013-04-10 08:02:00,
2013-04-10 03:12:00,30.2,28.9,29.98,NW,305,8.0,8.0,95,0.00,,,0.00,Wunderground v.1.15,2013-04-10 08:12:00,
2013-04-10 03:22:00,30.5,29.2,30.02,NW,310,9.0,11.0,95,0.00,,,0.00,Wunderground v.1.15,2013-04-10 08:22:00,
2013-04-10 03:31:00,30.5,29.0,30.02,NW,310,9.0,9.0,94,0.00,,,0.00,Wunderground v.1.15,2013-04-10 08:31:00,
2013-04-10 03:41:00,30.8,29.3,30.03,WNW,282,7.0,7.0,94,0.00,,,0.00,Wunderground v.1.15,2013-04-10 08:41:00,
2013-04-10 03:52:00,30.8,29.3,30.02,NW,315,8.0,9.0,94,0.00,,,0.00,Wunderground v.1.15,2013-04-10 08:52:00,
2013-04-10 04:02:00,30.7,29.4,29.97,NNW,338,5.0,5.0,95,0.00,,,0.00,Wunderground v.1.15,2013-04-10 09:02:00,
2013-04-10 04:12:00,30.9,29.6,29.97,NNW,338,6.0,7.0,95,0.00,,,0.00,Wunderground v.1.15,2013-04-10 09:12:00,
2013-04-10 04:22:00,30.5,29.0,29.99,NNW,339,5.0,5.0,94,0.00,,,0.00,Wunderground v.1.15,2013-04-10 09:22:00,
2013-04-10 04:32:00,30.4,29.1,29.99,NNW,339,4.0,4.0,95,0.00,,,0.00,Wunderground v.1.15,2013-04-10 09:32:00,
2013-04-10 04:42:00,30.4,28.9,29.98,NNW,339,5.0,6.0,94,0.00,,,0.00,Wunderground v.1.15,2013-04-10 09:42:00,
2013-04-10 04:52:00,30.1,28.6,29.97,NNW,338,5.0,12.0,94,0.00,,,0.00,Wunderground v.1.15,2013-04-10 09:52:00,
2013-04-10 05:01:00,29.9,28.1,29.97,NNW,338,5.0,5.0,93,0.00,,,0.00,Wunderground v.1.15,2013-04-10 10:01:00,
2013-04-10 05:12:00,29.6,27.8,29.96,NNW,338,4.0,4.0,93,0.00,,,0.00,Wunderground v.1.15,2013-04-10 10:12:00,
2013-04-10 05:22:00,29.4,27.9,29.97,NNW,338,4.0,5.0,94,0.00,,,0.00,Wunderground v.1.15,2013-04-10 10:22:00,
2013-04-10 05:32:00,29.4,27.9,29.95,NNW,338,4.0,4.0,94,0.00,,,0.00,Wunderground v.1.15,2013-04-10 10:32:00,
2013-04-10 05:42:00,29.4,27.6,29.98,NNW,338,5.0,5.0,93,0.00,,,0.00,Wunderground v.1.15,2013-04-10 10:42:00,
2013-04-10 05:52:00,29.7,27.9,30.01,NNW,337,4.0,5.0,93,0.00,,,0.00,Wunderground v.1.15,2013-04-10 10:52:00,
2013-04-10 06:02:00,30.1,28.3,30.00,NNW,339,4.0,4.0,93,0.00,,,0.00,Wunderground v.1.15,2013-04-10 11:02:00,
2013-04-10 06:12:00,30.4,28.6,29.99,NNW,339,4.0,4.0,93,0.00,,,0.00,Wunderground v.1.15,2013-04-10 11:12:00,
2013-04-10 06:22:00,30.4,28.9,29.99,NNW,337,3.0,3.0,94,0.00,,,0.00,Wunderground v.1.15,2013-04-10 11:22:00,
2013-04-10 06:32:00,30.4,28.9,29.99,NNW,337,3.0,3.0,94,0.00,,,0.00,Wunderground v.1.15,2013-04-10 11:32:00,
2013-04-10 06:42:00,30.2,28.7,30.00,NNW,337,3.0,4.0,94,0.00,,,0.00,Wunderground v.1.15,2013-04-10 11:42:00,
2013-04-10 06:52:00,29.8,28.0,30.01,NNW,338,3.0,3.0,93,0.00,,,0.00,Wunderground v.1.15,2013-04-10 11:52:00,
2013-04-10 07:02:00,29.6,28.1,30.04,NNW,337,3.0,3.0,94,0.00,,,0.00,Wunderground v.1.15,2013-04-10 12:02:00,
2013-04-10 07:12:00,29.9,28.1,30.07,NNW,337,3.0,3.0,93,0.00,,,0.00,Wunderground v.1.15,2013-04-10 12:12:00,
2013-04-10 07:22:00,30.1,28.6,30.07,NNW,337,3.0,3.0,94,0.00,,,0.00,Wunderground v.1.15,2013-04-10 12:22:00,
2013-04-10 07:32:00,30.1,28.6,29.98,NNW,338,2.0,2.0,94,0.00,,,0.00,Wunderground v.1.15,2013-04-10 12:32:00,
2013-04-10 07:42:00,30.3,28.8,30.03,NNW,337,3.0,3.0,94,0.00,,,0.00,Wunderground v.1.15,2013-04-10 12:42:00,
2013-04-10 07:52:00,30.1,28.6,30.02,NNW,337,2.0,2.0,94,0.00,,,0.00,Wunderground v.1.15,2013-04-10 12:52:00,
2013-04-10 08:12:00,29.4,27.9,30.02,NNW,338,2.0,2.0,94,0.00,,,0.00,Wunderground v.1.15,2013-04-10 13:12:00,
2013-04-10 08:22:00,29.5,28.0,30.01,NNW,339,2.0,2.0,94,0.00,,,0.00,Wunderground v.1.15,2013-04-10 13:22:00,
2013-04-10 08:32:00,30.1,28.6,30.02,NNW,337,2.0,2.0,94,0.00,,,0.00,Wunderground v.1.15,2013-04-10 13:32:00,
2013-04-10 08:42:00,30.3,28.8,30.04,NNW,339,2.0,2.0,94,0.00,,,0.00,Wunderground v.1.15,2013-04-10 13:42:00,
2013-04-10 08:52:00,30.3,28.8,30.04,NNW,338,2.0,2.0,94,0.00,,,0.00,Wunderground v.1.15,2013-04-10 13:52:00,
2013-04-10 09:02:00,30.0,28.5,30.04,NNW,338,2.0,2.0,94,0.00,,,0.00,Wunderground v.1.15,2013-04-10 14:02:00,
2013-04-10 09:12:00,30.0,28.5,30.05,NNW,338,2.0,2.0,94,0.00,,,0.00,Wunderground v.1.15,2013-04-10 14:12:00,
2013-04-10 09:22:00,30.0,28.5,30.06,NNW,338,2.0,2.0,94,0.00,,,0.00,Wunderground v.1.15,2013-04-10 14:22:00,
2013-04-10 09:32:00,30.0,28.5,30.06,NNW,339,2.0,2.0,94,0.00,,,0.00,Wunderground v.1.15,2013-04-10 14:32:00,
2013-04-10 09:42:00,30.2,28.7,30.05,NNW,338,2.0,2.0,94,0.00,,,0.00,Wunderground v.1.15,2013-04-10 14:42:00,
2013-04-10 09:52:00,30.4,28.9,30.08,NNW,338,2.0,2.0,94,0.00,,,0.00,Wunderground v.1.15,2013-04-10 14:52:00,
2013-04-10 10:02:00,30.6,29.1,30.07,NNW,338,2.0,3.0,94,0.00,,,0.00,Wunderground v.1.15,2013-04-10 15:02:00,
2013-04-10 10:12:00,30.6,29.1,30.08,NNW,337,1.0,1.0,94,0.00,,,0.00,Wunderground v.1.15,2013-04-10 15:12:00,
2013-04-10 10:22:00,30.3,28.8,30.08,NNW,338,2.0,2.0,94,0.00,,,0.00,Wunderground v.1.15,2013-04-10 15:22:00,
2013-04-10 10:31:00,30.2,28.7,30.09,NNW,337,3.0,3.0,94,0.00,,,0.00,Wunderground v.1.15,2013-04-10 15:31:00,
2013-04-10 10:42:00,30.3,28.8,30.09,NNW,339,2.0,2.0,94,0.00,,,0.00,Wunderground v.1.15,2013-04-10 15:42:00,
2013-04-10 10:52:00,30.4,28.9,30.08,NNW,338,2.0,2.0,94,0.00,,,0.00,Wunderground v.1.15,2013-04-10 15:52:00,
2013-04-10 11:01:00,30.3,28.8,30.07,NNW,338,2.0,3.0,94,0.00,,,0.00,Wunderground v.1.15,2013-04-10 16:01:00,
2013-04-10 11:12:00,30.2,28.7,30.05,NNW,337,3.0,3.0,94,0.00,,,0.00,Wunderground v.1.15,2013-04-10 16:12:00,
2013-04-10 11:22:00,30.1,28.3,30.06,NNW,338,3.0,3.0,93,0.00,,,0.00,Wunderground v.1.15,2013-04-10 16:22:00,
2013-04-10 11:32:00,29.8,28.0,30.08,NNW,337,3.0,4.0,93,0.00,,,0.00,Wunderground v.1.15,2013-04-10 16:32:00,
2013-04-10 11:42:00,29.6,27.8,30.09,NNW,338,3.0,3.0,93,0.00,,,0.00,Wunderground v.1.15,2013-04-10 16:42:00,
2013-04-10 11:52:00,29.7,27.9,30.07,NNW,338,3.0,3.0,93,0.00,,,0.00,Wunderground v.1.15,2013-04-10 16:52:00,
2013-04-10 12:02:00,29.6,27.6,30.10,NNW,337,3.0,3.0,92,0.00,,,0.00,Wunderground v.1.15,2013-04-10 17:02:00,
2013-04-10 12:12:00,29.5,27.7,30.08,NNW,338,3.0,4.0,93,0.00,,,0.00,Wunderground v.1.15,2013-04-10 17:12:00,
2013-04-10 12:22:00,29.6,27.8,30.05,NNW,337,2.0,2.0,93,0.00,,,0.00,Wunderground v.1.15,2013-04-10 17:22:00,
2013-04-10 12:32:00,29.6,27.8,30.08,NNW,337,2.0,2.0,93,0.00,,,0.00,Wunderground v.1.15,2013-04-10 17:32:00,
2013-04-10 12:42:00,29.6,27.8,30.09,NNW,337,2.0,2.0,93,0.00,,,0.00,Wunderground v.1.15,2013-04-10 17:42:00,
2013-04-10 12:52:00,29.5,27.7,30.08,NNW,337,3.0,3.0,93,0.00,,,0.00,Wunderground v.1.15,2013-04-10 17:52:00,
2013-04-10 13:02:00,29.7,27.9,30.11,NNW,337,2.0,2.0,93,0.00,,,0.00,Wunderground v.1.15,2013-04-10 18:02:00,
2013-04-10 13:12:00,29.9,28.1,30.08,NNW,337,2.0,3.0,93,0.00,,,0.00,Wunderground v.1.15,2013-04-10 18:12:00,
2013-04-10 13:22:00,30.0,28.2,30.09,NNW,337,3.0,3.0,93,0.00,,,0.00,Wunderground v.1.15,2013-04-10 18:22:00,
2013-04-10 13:32:00,29.7,27.9,30.06,NNW,337,3.0,3.0,93,0.00,,,0.00,Wunderground v.1.15,2013-04-10 18:32:00,
2013-04-10 13:42:00,29.6,27.8,30.07,NNW,337,3.0,4.0,93,0.00,,,0.00,Wunderground v.1.15,2013-04-10 18:42:00,
2013-04-10 14:12:00,29.7,27.7,30.06,NNW,338,3.0,4.0,92,0.00,,,0.00,Wunderground v.1.15,2013-04-10 19:12:00,
2013-04-10 14:22:00,29.5,27.5,30.06,NNW,337,3.0,3.0,92,0.00,,,0.00,Wunderground v.1.15,2013-04-10 19:22:00,
2013-04-10 14:32:00,29.5,27.5,30.06,NNW,337,3.0,3.0,92,0.00,,,0.00,Wunderground v.1.15,2013-04-10 19:32:00,
2013-04-10 14:42:00,29.8,28.0,30.05,NNW,337,3.0,3.0,93,0.00,,,0.00,Wunderground v.1.15,2013-04-10 19:42:00,
2013-04-10 14:52:00,29.8,27.8,30.04,NNW,338,3.0,3.0,92,0.00,,,0.00,Wunderground v.1.15,2013-04-10 19:52:00,
2013-04-10 15:02:00,29.8,28.0,30.03,NNW,337,3.0,4.0,93,0.00,,,0.00,Wunderground v.1.15,2013-04-10 20:02:00,
2013-04-10 15:12:00,30.1,28.3,30.00,NNW,337,3.0,4.0,93,0.00,,,0.00,Wunderground v.1.15,2013-04-10 20:12:00,
2013-04-10 15:22:00,30.3,28.5,30.02,NNW,337,3.0,3.0,93,0.00,,,0.00,Wunderground v.1.15,2013-04-10 20:22:00,
2013-04-10 15:32:00,30.4,28.9,30.00,NNW,338,3.0,3.0,94,0.00,,,0.00,Wunderground v.1.15,2013-04-10 20:32:00,
2013-04-10 15:52:00,30.4,28.6,30.00,NNW,337,2.0,4.0,93,0.00,,,0.00,Wunderground v.1.15,2013-04-10 20:52:00,
2013-04-10 16:02:00,30.3,28.5,30.01,NNW,338,3.0,3.0,93,0.00,,,0.00,Wunderground v.1.15,2013-04-10 21:02:00,
2013-04-10 16:12:00,30.3,28.5,30.01,NNW,338,2.0,2.0,93,0.00,,,0.00,Wunderground v.1.15,2013-04-10 21:12:00,
2013-04-10 16:22:00,30.3,28.5,30.03,NNW,337,2.0,3.0,93,0.00,,,0.00,Wunderground v.1.15,2013-04-10 21:22:00,
2013-04-10 16:32:00,30.4,28.6,30.04,NNW,337,3.0,4.0,93,0.00,,,0.00,Wunderground v.1.15,2013-04-10 21:32:00,
2013-04-10 16:42:00,30.5,28.7,30.04,NNW,337,3.0,3.0,93,0.00,,,0.00,Wunderground v.1.15,2013-04-10 21:42:00,
2013-04-10 16:52:00,30.7,28.7,30.02,NNW,337,3.0,3.0,92,0.00,,,0.00,Wunderground v.1.15,2013-04-10 21:52:00,
2013-04-10 17:02:00,30.7,28.7,30.02,NNW,338,3.0,4.0,92,0.00,,,0.00,Wunderground v.1.15,2013-04-10 22:02:00,
2013-04-10 17:12:00,31.1,29.3,30.03,NNW,337,3.0,3.0,93,0.00,,,0.00,Wunderground v.1.15,2013-04-10 22:12:00,
2013-04-10 17:22:00,31.2,29.1,30.02,NNW,337,2.0,3.0,92,0.00,,,0.00,Wunderground v.1.15,2013-04-10 22:22:00,
2013-04-10 17:32:00,31.3,29.2,30.02,NNW,337,3.0,4.0,92,0.00,,,0.00,Wunderground v.1.15,2013-04-10 22:32:00,
2013-04-10 17:42:00,31.2,28.9,30.01,NNW,337,3.0,3.0,91,0.00,,,0.00,Wunderground v.1.15,2013-04-10 22:42:00,
2013-04-10 17:51:00,31.5,29.4,30.00,NNW,338,2.0,2.0,92,0.00,,,0.00,Wunderground v.1.15,2013-04-10 22:51:00,
2013-04-10 18:02:00,31.6,29.5,30.00,NNW,338,2.0,2.0,92,0.00,,,0.00,Wunderground v.1.15,2013-04-10 23:02:00,
2013-04-10 18:12:00,31.5,29.2,29.99,NNW,337,3.0,3.0,91,0.00,,,0.00,Wunderground v.1.15,2013-04-10 23:12:00,
2013-04-10 18:22:00,31.7,29.6,30.00,NNW,338,2.0,2.0,92,0.00,,,0.00,Wunderground v.1.15,2013-04-10 23:22:00,
2013-04-10 18:32:00,31.6,29.3,30.00,NNW,337,3.0,3.0,91,0.00,,,0.00,Wunderground v.1.15,2013-04-10 23:32:00,
2013-04-10 18:42:00,31.7,29.6,30.02,NNW,338,2.0,2.0,92,0.00,,,0.00,Wunderground v.1.15,2013-04-10 23:42:00,
2013-04-10 18:52:00,31.7,29.6,30.02,NNW,337,2.0,5.0,92,0.00,,,0.00,Wunderground v.1.15,2013-04-10 23:52:00,
2013-04-10 19:02:00,31.8,29.7,30.02,NNW,338,2.0,2.0,92,0.00,,,0.00,Wunderground v.1.15,2013-04-11 00:02:00,
2013-04-10 19:12:00,31.8,29.7,30.02,NNW,337,2.0,3.0,92,0.00,,,0.00,Wunderground v.1.15,2013-04-11 00:12:00,
2013-04-10 19:22:00,31.8,29.7,30.03,NNW,337,3.0,3.0,92,0.00,,,0.00,Wunderground v.1.15,2013-04-11 00:22:00,
2013-04-10 19:31:00,31.7,29.6,30.03,NNW,337,2.0,2.0,92,0.00,,,0.00,Wunderground v.1.15,2013-04-11 00:31:00,
2013-04-10 19:42:00,31.7,29.6,30.03,NNW,337,2.0,2.0,92,0.00,,,0.00,Wunderground v.1.15,2013-04-11 00:42:00,
2013-04-10 19:52:00,31.6,29.5,30.03,NNW,337,2.0,2.0,92,0.00,,,0.00,Wunderground v.1.15,2013-04-11 00:52:00,
2013-04-10 20:02:00,31.7,29.6,30.03,NNW,337,2.0,2.0,92,0.00,,,0.00,Wunderground v.1.15,2013-04-11 01:02:00,
2013-04-10 20:11:00,31.7,29.6,30.02,NNW,338,2.0,2.0,92,0.00,,,0.00,Wunderground v.1.15,2013-04-11 01:11:00,
2013-04-10 20:21:00,31.6,29.3,30.03,NNW,338,2.0,2.0,91,0.00,,,0.00,Wunderground v.1.15,2013-04-11 01:21:00,
2013-04-10 20:32:00,31.5,29.4,30.03,NNW,338,2.0,2.0,92,0.00,,,0.00,Wunderground v.1.15,2013-04-11 01:32:00,
2013-04-10 20:42:00,31.5,29.4,30.03,NNW,337,2.0,3.0,92,0.00,,,0.00,Wunderground v.1.15,2013-04-11 01:42:00,
2013-04-10 20:51:00,31.5,29.2,30.03,NNW,338,2.0,4.0,91,0.00,,,0.00,Wunderground v.1.15,2013-04-11 01:51:00,
2013-04-10 21:02:00,31.3,28.7,30.03,NNW,337,3.0,3.0,90,0.00,,,0.00,Wunderground v.1.15,2013-04-11 02:02:00,
2013-04-10 21:12:00,31.2,28.6,30.03,NNW,338,2.0,3.0,90,0.00,,,0.00,Wunderground v.1.15,2013-04-11 02:12:00,
2013-04-10 21:22:00,31.1,28.5,30.04,NNW,338,3.0,4.0,90,0.00,,,0.00,Wunderground v.1.15,2013-04-11 02:22:00,
2013-04-10 21:32:00,31.0,28.4,30.05,NNW,337,3.0,3.0,90,0.00,,,0.00,Wunderground v.1.15,2013-04-11 02:32:00,
2013-04-10 21:42:00,31.0,28.7,30.05,NNW,337,2.0,2.0,91,0.00,,,0.00,Wunderground v.1.15,2013-04-11 02:42:00,
2013-04-10 21:52:00,31.0,28.7,30.06,NNW,338,2.0,2.0,91,0.00,,,0.00,Wunderground v.1.15,2013-04-11 02:52:00,
2013-04-10 22:02:00,31.0,28.7,30.07,NNW,338,2.0,2.0,91,0.00,,,0.00,Wunderground v.1.15,2013-04-11 03:02:00,
2013-04-10 22:12:00,31.0,28.7,30.07,NNW,338,2.0,2.0,91,0.00,,,0.00,Wunderground v.1.15,2013-04-11 03:12:00,
2013-04-10 22:22:00,31.0,28.7,30.06,NNW,338,2.0,3.0,91,0.00,,,0.00,Wunderground v.1.15,2013-04-11 03:22:00,
2013-04-10 22:32:00,30.9,28.6,30.06,NNW,337,2.0,3.0,91,0.00,,,0.00,Wunderground v.1.15,2013-04-11 03:32:00,
2013-04-10 22:42:00,30.9,28.6,30.06,NNW,337,2.0,3.0,91,0.00,,,0.00,Wunderground v.1.15,2013-04-11 03:42:00,
2013-04-10 22:52:00,30.8,28.5,30.06,NNW,337,2.0,3.0,91,0.00,,,0.00,Wunderground v.1.15,2013-04-11 03:52:00,
2013-04-10 23:02:00,30.8,28.5,30.07,NNW,337,2.0,2.0,91,0.00,,,0.00,Wunderground v.1.15,2013-04-11 04:02:00,
2013-04-10 23:12:00,30.8,28.5,30.06,NNW,338,2.0,3.0,91,0.00,,,0.00,Wunderground v.1.15,2013-04-11 04:12:00,
2013-04-10 23:22:00,30.9,28.6,30.07,NNW,338,2.0,2.0,91,0.00,,,0.00,Wunderground v.1.15,2013-04-11 04:22:00,
2013-04-10 23:32:00,30.8,28.2,30.07,NNW,338,3.0,3.0,90,0.00,,,0.00,Wunderground v.1.15,2013-04-11 04:32:00,
2013-04-10 23:42:00,30.7,28.1,30.06,NNW,337,3.0,4.0,90,0.00,,,0.00,Wunderground v.1.15,2013-04-11 04:42:00,
2013-04-10 23:52:00,30.7,28.1,30.07,NNW,338,3.0,3.0,90,0.00,,,0.00,Wunderground v.1.15,2013-04-11 04:52:00,